{"data":{"norad_id":65466,"epoch":"2026-09-20T21:52:03.918144Z","epoch_age_seconds":79384,"freshness":"FRESH","line1":"1 65466U 25195J   26263.91115646  .00013918  00000+0  42243-3 0  9990","line2":"2 65466  53.1579  67.8062 0001492  82.1141 278.0031 15.34388796 59932","mean_motion":15.34388796,"eccentricity":0.0001492,"inclination_deg":53.1579,"raan_deg":67.8062,"arg_perigee_deg":82.1141,"mean_anomaly_deg":278.0031,"bstar":0.00042243,"rev_number":5993,"period_min":93.848443351121,"perigee_km":461.71588272655,"apogee_km":463.7571993912,"semimajor_km":6840.8735410589,"source":"CELESTRAK","updated_at":"2026-09-21T09:00:35.615487Z"}}